ROMMA est une association bénévole à but non lucratif. Votre soutien est indispensable : ADHERER à ROMMA ou FAIRE un DON

Pointe d'Hirmentaz - (74, Haute-Savoie)

Massif du Chablais (1600 m)   Longitude: 06° 29' 41" E   Latitude: 46° 13' 49" N Station romma n°120
 

Détail journalier du     <<     >>

Température Humidité Vent Dir Rafale Dir. rafale Ensol.
Heure (°C) (%) (km/h) (km/h) (min)
01:00 4.5465---13---0
02:00 3.6513---8---0
03:00 1.6775---19---0
04:00 2.66315---24---0
05:00 3.26216---24---0
06:00 3.2726---13---0
07:00 2.5779---15---0
08:00 2.37510---18---0
09:00 3.17010---15---10
10:00 3.27111---18---60
11:00 3.9666---15---60
12:00 3.9652---13---60
13:00 2.4676---16---60
14:00 1.96713---19---10
15:00 2.17514---23---0
16:00 2.37417---26---50
17:00 2.17820---27---60
18:00 1.88320---29---0
19:00 1.98520---27---0
20:00 1.98613---23---0
21:00
22:00
23:00
minuit

Graphique du 24-01-2020

 

Serveur OMMA